Jackpot

Texas Poker Multi Jackpot System

Kini Telah hadir Jackpot SUPER ROYAL FLUSH

Kini Telah hadir Jackpot 2000 (khusus table VIP keatas).

Ikutilah global jackpot yang tersedia di system kami, dengan system jackpot terbaru dan pertama di indonesia, anda dapat membeli jackpot dengan harga 100 rupiah saja dan menangkan hadiahnya hingga puluhan juta rupiah.

Jackpot bukanlah suatu keharusan untuk dibeli, namun kami memberikan suatu fitur tambahan untuk member tercinta dari www.nagagaul.com.

Terdapat tiga pilihan harga jackpot yang bisa anda beli yaitu :100,500,1000 dan 2000(khusus table VIP Keatas) rupiah.

Hadiah dari Multi jackpot system www.nagagaul.com

  1. full house x 10 harga jackpot yang anda beli.
      (contoh:anda membeli 1000 maka:1000 X10 = 10.000)
  2. four of kind x 250 harga jackpot yang anda beli
      (contoh:anda membeli 1000 maka:1000 X250 = 250.000)
  3. Straight flush x 1200
      (contoh:anda membeli 1000 maka:1000 X1200 = 1.200.000)
  4. Royal flush x 10000 harga jackpot yang anda beli
      (contoh:anda membeli 1000 maka:1000 X10000 = 10.000.000)
  5. SUPER ROYAL FLUSH x 30000 harga jackpot yang anda beli
      (contoh:anda membeli 1000 maka:1000 X30000 = 30.000.000)

Kondisi kartu

  1. full house adalah kondisi kartu dimana kartu anda dan kartu tengah dengan total 7 kartu bisa mendapatkan nilai 5 kartu dengan kombinasi 1 tris(three of kind) dan 1 pair, contoh 3 kartu 10 dan 2 kartu 5
  2. Four of kind adalah kondisi kartu dimana kartu anda dan kartu tengah dengan total 7 kartu bisa mendapatkan nilai 5 kartu dengan kombinasi 4 kartu yang sama jumlah dan 1 kartu apapun juga contoh anda mendapatkan 4 buah kartu angka 3 dan 1 kartu apapun.
  3. Staright flush adalah kondisi kartu dimana kartu anda dan kartu tengah dengan total 7 kartu bisa mendapatkan nilai 5 kartu dengan kombinasi seri / staright dengan kembang yang sama contoh : urutan kartu dari angka 5, 6, 7, 8 , 9 10 dengan kembang yg sama misalnya as hati
  4. Royal flush adalah kondisi kartu dimana kartu anda dan kartu tengah dengan total 7 kartu bisa mendapatkan nilai 5 kartu dengan kombinasi seri / staright dengan kembang yang sama tetapi kartu tersebut haruslah dimulai dari 10. contoh 10, Queen, Jack, King dan aces dengan kembang yang sama
  5. Super Royal flush adalah kondisi kartu dimana Kedua kartu anda digabung dengan 3 kartu pertama meja haruslah royal flush. contoh kartu anda 10,Queen kembang sama dan 3 kartu pertama meja adalah Jack, King dan aces dengan kembang yang sama

Demikian adalah penjelasan dari Multi Jackpot www.nagagaul.com terima kasih dan selamat bermain salam hoki dari kami

Texas Poker Jackpot Winner

TOP SUPER ROYAL FLUSH
No.TanggalNamaPriceWin
116/08 12:24MACACO88Super Royal flush30,000,000
216/08 08:40LANAI01Super Royal flush6,000,000
316/08 08:19GILAJUDI21Super Royal flush60,000,000
416/08 02:38HAMBUGER99Super Royal flush15,000,000
516/08 01:56B4G4S111Super Royal flush15,000,000
TOP ROYAL FLUSH
No.TanggalNamaPriceWin
116/08 13:44AS4L0L3Royal flush2,000,000
216/08 13:38CS_JPQQRoyal flush2,000,000
316/08 12:57D1KA23Royal flush5,000,000
416/08 12:57XENIA996Royal flush500,000
516/08 12:54ANGGA19098Royal flush20,000,000
TOP STRAIGHT FLUSH
No.TanggalNamaPriceWin
116/08 13:51SBY_999Straight Flush240,000
216/08 13:50PURA1980Straight Flush600,000
316/08 13:49TUKEN1MStraight Flush240,000
416/08 13:47KUACI123Straight Flush1,200,000
516/08 13:47PPUTRA08Straight Flush60,000
LATEST JACKPOT
No.TanggalNamaPriceWin
116/08 13:51DIA_88Full House5,000
216/08 13:51SEBL4K1122Full House5,000
316/08 13:51SIMMA666Full House20,000
416/08 13:51KISRUH212Full House2,000
516/08 13:51S1AN2RIFull House10,000
616/08 13:51TEMPOER999Full House5,000
716/08 13:51SBY_999Straight Flush240,000
816/08 13:51ARAFAH8888Full House10,000
916/08 13:51SICANTIK98Full House1,000
1016/08 13:51DAVA657Full House5,000
1116/08 13:51KASDI337Full House1,000
1216/08 13:51FD197Full House2,000
1316/08 13:51K0NDOR4Y4MFour Of A Kind50,000
1416/08 13:51DENAYUUUFull House1,000
1516/08 13:51UANGKU342Full House2,000
1616/08 13:51AKBAR77Full House5,000
1716/08 13:51PAPING2Full House10,000
1816/08 13:51IKONCOKW15Full House1,000
1916/08 13:51MARTOLOYO1Full House1,000
2016/08 13:51RICZFull House20,000
2116/08 13:51KANZAH0807Full House2,000
2216/08 13:51DWBTTE1Full House2,000
2316/08 13:51SEASON13Full House5,000
2416/08 13:51CAMSENO96Full House1,000
2516/08 13:51TOTHESTREEFull House10,000
2616/08 13:51PUYAN9Full House5,000
2716/08 13:51ANTTOFull House10,000
2816/08 13:51IMMIMMFull House2,000
2916/08 13:51NYERIHULUFull House1,000
3016/08 13:51ROESPLUSFull House2,000
3116/08 13:51POM558Full House2,000
3216/08 13:50NINGRAT888Four Of A Kind500,000
3316/08 13:50IRA23Full House5,000
3416/08 13:50MMAANNAAFull House5,000
3516/08 13:50RHEGHEAFull House2,000
3616/08 13:50A3922695Full House2,000
3716/08 13:50HASIL90Full House5,000
3816/08 13:50ALFEBRINFull House2,000
3916/08 13:50UYUNG00Full House2,000
4016/08 13:50C931B678Full House2,000
4116/08 13:50KJ1215Full House10,000
4216/08 13:50MEKEL1997Full House10,000
4316/08 13:50M44M33Full House5,000
4416/08 13:50IMRONIFull House10,000
4516/08 13:50WINTER07Full House10,000
4616/08 13:50WARU2610Full House10,000
4716/08 13:50RAFLUSSSFull House10,000
4816/08 13:50RIBERIBEFull House10,000
4916/08 13:50DEVSAN86Full House10,000
5016/08 13:50B4IMBIM4Full House5,000

Domino Multi Jackpot System

Ikutilah global jackpot yang tersedia di system kami, dengan system jackpot terbaru dan pertama di indonesia, anda dapat membeli jackpot dengan harga 100 rupiah saja dan menangkan hadiahnya hingga puluhan juta rupiah.

Jackpot bukanlah suatu keharusan untuk dibeli, namun kami memberikan suatu fitur tambahan untuk member tercinta dari www.nagagaul.com.

Terdapat tiga pilihan harga jackpot yang bisa anda beli yaitu :100,500 dan 1000 rupiah.

Hadiah dari Multi jackpot system www.nagagaul.com

  1. Murni Kecil x 50 harga jackpot yang anda beli.
      (contoh:anda membeli 1000 maka:1000 X 50 = 50.000)
  2. Murni Besar x 50 harga jackpot yang anda beli
      (contoh:anda membeli 1000 maka:1000 X 50 = 50.000)
  3. BALAK x 100 harga jackpot yang anda beli
      (contoh:anda membeli 1000 maka:1000 X 100 = 100.000)
  4. ENAM DEWA x 6666 harga jackpot yang anda beli
      (contoh:anda membeli 1000 maka:1000 X 6666 = 6.666.000)

Demikian adalah penjelasan dari Multi Jackpot www.nagagaul.com terima kasih dan selamat bermain salam hoki dari kami

Domino Jackpot Winner

TOP ENAM DEWA
No.TanggalNamaPriceWin
116/08 13:46FRENDYYANmurni enam6,666,000
216/08 12:51ASWORD22murni enam6,666,000
316/08 09:59W4T312murni enam6,666,000
416/08 08:58CHILOENKmurni enam6,666,000
516/08 04:33DOKTER1088murni enam666,600
TOP BALAK
No.TanggalNamaPriceWin
116/08 13:51LAVED87balak100,000
216/08 13:51WC5000balak10,000
316/08 13:44OCY55balak10,000
416/08 13:44Y79K6JM2CUbalak50,000
516/08 13:43LB998880balak100,000
LATEST JACKPOT
No.TanggalNamaPriceWin
116/08 13:51HERIKATSUmurni kecil5,000
216/08 13:51LAVED87balak100,000
316/08 13:51WC5000balak10,000
416/08 13:51KIPEKIPE99murni kecil50,000
516/08 13:50GALAHAD18lucky9910,000
616/08 13:509DMRJXDQD9murni besar50,000
716/08 13:50ARYAN999murni kecil50,000
816/08 13:50NIRIBASmurni kecil50,000
916/08 13:4915M41L157murni besar50,000
1016/08 13:49BODAG01lucky9910,000
1116/08 13:48MAULANA52murni kecil25,000
1216/08 13:48FVCK07murni kecil50,000
1316/08 13:48NIRIBASmurni kecil50,000
1416/08 13:48C9YNFXMU2Alucky99700,000
1516/08 13:47OMCODED22murni besar25,000
1616/08 13:47MAHAMERU14murni besar50,000
1716/08 13:47LOVE_MUmurni besar50,000
1816/08 13:46T4D0012914murni kecil50,000
1916/08 13:46SODOBOS28murni besar25,000
2016/08 13:46FRENDYYANmurni enam6,666,000
2116/08 13:46TITIK8murni kecil50,000
2216/08 13:46LANI234murni besar50,000
2316/08 13:46BEXS27murni besar50,000
2416/08 13:46ZAROTOTImurni kecil25,000
2516/08 13:46MASSABEHmurni kecil50,000
2616/08 13:46ZUIIImurni kecil50,000
2716/08 13:46ALIANTARAAmurni kecil50,000
2816/08 13:45BPOFFICIALmurni kecil50,000
2916/08 13:45MADA77murni kecil50,000
3016/08 13:45NBOIPHTLO2murni kecil50,000
3116/08 13:45PHAGAT45murni kecil5,000
3216/08 13:45KANDAR88murni kecil25,000
3316/08 13:44OCY55balak10,000
3416/08 13:44Y79K6JM2CUbalak50,000
3516/08 13:43LB998880balak100,000
3616/08 13:43MENANGKAUYmurni besar25,000
3716/08 13:43DORNA111murni kecil50,000
3816/08 13:43PANISAHmurni kecil50,000
3916/08 13:42LOVE_MUbalak100,000
4016/08 13:42SURTIOLOKOmurni kecil50,000
4116/08 13:42GEAKU9murni besar5,000
4216/08 13:42YUSAR29murni besar5,000
4316/08 13:41OTSUKYbalak100,000
4416/08 13:41IW4N98murni kecil5,000
4516/08 13:41LIBAZ79murni besar25,000
4616/08 13:41MEGALOMAN9murni kecil25,000
4716/08 13:41IKBALSmurni besar5,000
4816/08 13:40LUMAT99murni besar50,000
4916/08 13:39FAUD99murni kecil50,000
5016/08 13:39TEWUL08balak50,000

Ceme Multi Jackpot System

Jackpot dilihat dari gabungan kartu pemain dengan kartu bandar. Bandar harus membeli jackpot sebanyak jumlah player yang sedang duduk. Sebagai contoh bila terdapat 3 pemain duduk bermain, dan bandar memutuskan untuk membeli jackpot Rp 1.000, maka pada periode tersebut bandar akan membeli jackpot sebanyak 3xRp1.000 = Rp3.000.

Jackpot bukanlah suatu keharusan untuk dibeli, namun kami memberikan suatu fitur tambahan untuk member tercinta dari www.nagagaul.com.

Terdapat tiga pilihan harga jackpot yang bisa anda beli yaitu :100,500 dan 1000 rupiah.

Hadiah dari Multi jackpot system www.nagagaul.com

  1. Murni Kecil x 50 harga jackpot yang anda beli.
      (contoh:anda membeli 1000 maka:1000 X 50 = 50.000)
  2. Murni Besar x 50 harga jackpot yang anda beli
      (contoh:anda membeli 1000 maka:1000 X 50 = 50.000)
  3. BALAK x 200 harga jackpot yang anda beli
      (contoh:anda membeli 1000 maka:1000 X 200 = 200.000)
  4. ENAM DEWA x 6666 harga jackpot yang anda beli
      (contoh:anda membeli 1000 maka:1000 X 6666 = 6.666.000)

Demikian adalah penjelasan dari Multi Jackpot www.nagagaul.com terima kasih dan selamat bermain salam hoki dari kami

Ceme Jackpot Winner

TOP ENAM DEWA
No.TanggalNamaPriceWin
116/08 13:43ARIS9499murni enam666,600
216/08 13:31JLOVEGmurni enam6,666,000
316/08 13:28TRE3DIATASmurni enam3,333,000
416/08 13:10HAYATI889murni enam6,666,000
516/08 13:06COMME1murni enam6,666,000
TOP BALAK
No.TanggalNamaPriceWin
116/08 13:51JOHNKADAL2balak200,000
216/08 13:51DUNUNGbalak20,000
316/08 13:50SPGT21balak200,000
416/08 13:50ARCHER50balak200,000
516/08 13:50YAKUZA696balak200,000
LATEST JACKPOT
No.TanggalNamaPriceWin
116/08 13:51ANAKAYAM89murni besar50,000
216/08 13:51D1048C22murni besar50,000
316/08 13:51TARMUZI23murni besar50,000
416/08 13:51AOTONG76murni besar50,000
516/08 13:51ABUYUBAYmurni kecil50,000
616/08 13:51UCINKS21murni kecil50,000
716/08 13:51JOHNKADAL2balak200,000
816/08 13:51DUNUNGbalak20,000
916/08 13:51PUR_CIPRUTmurni kecil25,000
1016/08 13:51MUSLIMIN21murni kecil25,000
1116/08 13:50MASTER747murni kecil50,000
1216/08 13:50IND2892murni kecil50,000
1316/08 13:50DIFI94murni besar50,000
1416/08 13:50SPGT21balak200,000
1516/08 13:50ARCHER50balak200,000
1616/08 13:50WENG77murni kecil5,000
1716/08 13:50RBTLOZZmurni kecil50,000
1816/08 13:50UDEL666murni kecil50,000
1916/08 13:50D7CD5D46murni besar25,000
2016/08 13:50ZIDNI89murni kecil50,000
2116/08 13:50GAJA21murni kecil50,000
2216/08 13:50BOAMmurni besar5,000
2316/08 13:50YAKUZA696balak200,000
2416/08 13:49BERUTU12murni kecil50,000
2516/08 13:49KASTILA11murni kecil5,000
2616/08 13:49BENQZ99murni besar50,000
2716/08 13:49KAMP4Ymurni besar25,000
2816/08 13:49WARTOmurni besar5,000
2916/08 13:49LIPAN08murni kecil50,000
3016/08 13:49MAMAATULmurni besar25,000
3116/08 13:49VITERmurni kecil50,000
3216/08 13:49ALGHIFARIImurni besar50,000
3316/08 13:49RASTI87balak100,000
3416/08 13:49SIMON801murni besar25,000
3516/08 13:49COMPLO121murni besar25,000
3616/08 13:49GABLORmurni kecil50,000
3716/08 13:49A5300512792murni kecil25,000
3816/08 13:49ZAKCULESbalak20,000
3916/08 13:48ZIDNI89murni besar50,000
4016/08 13:48CHAMPION15murni besar25,000
4116/08 13:48CHAMPION15murni besar25,000
4216/08 13:48GENDENGCOKmurni besar50,000
4316/08 13:48FGDGFHJHGJbalak200,000
4416/08 13:48YAKUZA696murni besar50,000
4516/08 13:48EBA1774Amurni besar50,000
4616/08 13:48MARITUN12murni besar50,000
4716/08 13:48DEWA7UDI88murni besar50,000
4816/08 13:48HOKI1953murni kecil50,000
4916/08 13:48DIY_GAAmurni kecil5,000
5016/08 13:48GOPELL99murni kecil5,000